Location: Austin
(30.3000°N, 97.7500°W)
Time: 12:25:27
(UTC-05:00)

USA 245 - Pass Details

Date: 26 May 2023
Orbit: 265 x 985 km, 97.9° (Epoch: 22 May)

Event Time Altitude Azimuth Distance (km) Brightness Sun altitude
Exits shadow 22:34:49 50° 74° (ENE) 914 4.1 -23.7°
Drops below altitude 10° 22:39:03 10° 2° (N) 2,003 6.7 -24.4°
Sets 22:41:03 0° 357° (N) 2,799 7.7 -24.7°
